Regional Weather Roundup
Issued by NWS Green Bay, WI

Home | Current Version | Previous Version | Graphics & Text | Print | Product List | Glossary Off
Versions: 1 2 3 4 5 6 7 8 9 10 11 12 13 14 15 16 17 18 19 20 21 22 23 24 25 26 27 28 29 30 31 32 33 34 35 36 37 38 39 40 41 42 43 44 45 46 47 48 49 50

000
ASUS43 KGRB 221100
RWRGRB

NORTH-CENTRAL AND NORTHEAST WISCONSIN REGIONAL WEATHER ROUNDUP
NATIONAL WEATHER SERVICE GREEN BAY WI
600 AM CDT MON MAY 22 2017

WIZ005-009-010>012-018-019-221200-
NORTH CENTRAL WISCONSIN

CITY           SKY/WX    TMP DP  RH WIND       PRES   REMARKS
IRONWOOD       CLOUDY    45  43  93 W10       29.77R
MANITOWISH WTR NOT AVBL
ARBOR VITAE    NOT AVBL
EAGLE RIVER    NOT AVBL
LAND O LAKES   NOT AVBL
RHINELANDER    CLOUDY    45  42  89 W14       29.80R
PHILLIPS       NOT AVBL
ANTIGO         NOT AVBL
TOMAHAWK       NOT AVBL
MERRILL        NOT AVBL
$$

WIZ013-073-221200-
NORTHEAST WISCONSIN

CITY           SKY/WX    TMP DP  RH WIND       PRES   REMARKS
IRON MOUNTAIN  LGT RAIN  48  43  82 W7        29.76R
MARINETTE      CLOUDY    47  44  90 VRB7      29.82R
$$

WIZ017-030-035>037-045-221200-
CENTRAL WISCONSIN

CITY           SKY/WX    TMP DP  RH WIND       PRES   REMARKS
MEDFORD        NOT AVBL
WAUSAU         CLOUDY    44  42  93 W10       29.84R
MOSINEE        CLOUDY    43  43 100 W13       29.87R
MARSHFIELD     CLOUDY    44  41  89 SW9       29.86R
WISC RAPIDS    CLOUDY    45  40  82 W9        29.90R
STEVENS POINT  NOT AVBL
WAUPACA        NOT AVBL
SHAWANO        NOT AVBL
CLINTONVILLE   NOT AVBL
WAUTOMA        CLOUDY    45  40  82 SW8       29.90S
$$

WIZ038-039-048-051-221200-
FOX VALLEY

CITY           SKY/WX    TMP DP  RH WIND       PRES   REMARKS
NWS GREEN BAY  CLOUDY    48  43  82 W12       29.86R
APPLETON       CLOUDY    46  39  76 W13       29.86R
OSHKOSH        MOCLDY    48  39  71 W12G21    29.88S
FOND DU LAC    PTCLDY    47  38  71 W8        29.91R
$$

WIZ022-050-052-221200-
EAST CENTRAL WISCONSIN

CITY           SKY/WX    TMP DP  RH WIND       PRES   REMARKS
EPHRAIM        NOT AVBL
WASHINGTON ISL NOT AVBL
STURGEON BAY   CLOUDY    48  43  82 W17G23    29.82S
MANITOWOC      NOT AVBL
SHEBOYGAN      CLOUDY    48  41  76 W18       29.90R
$$

LMZ563-521-522-541>543-221200-
LAKESHORE

STATION/POSITION TIME  TEMP    WIND        PRES    VSBY  WAVE
                       AIR SEA DIR/SP/G                  HT/PER
                 (UTC) (F)     (DEG/KT/KT) (MB)    (MI)  (FT/S)
SHEBOYGAN LKSHOR 1000   49     250/ 15/ 16 1011.9R
KEWAUNEE LKSHORE 1030   49     250/  9/ 13 1010.2R
NORTHPORT PIER   1040   47     240/  7/ 13 1008.8S
N MID LAKE BUOY  0950   41 38  200/ 14/ 16 1009.7F         3/ 4
CHAMBERS ISLAND  1040   47     200/  8/ 12 1008.8R
MENOMINEE LKSHOR 1030          220/ 10/ 14 1008.6R
$$




USA.gov is the U.S. government's official web portal to all federal, state and local government web resources and services.